PBO Station Position Time Series. Reference Frame : NAM14
Format Version,1.1.1
4-character ID,P275
Station name,KenefikRchCN2006
Begin Date, 2006-07-15
End Date, 2023-06-26
Release Date, 2023-06-27
Reference position, 38.3215290374 North Latitude, -121.2145871749 East Longitude, -5.24858 meters elevation,
Date, North (mm), East (mm), Vertical (mm), North Std. Deviation (mm), East Std. Deviation (mm),              Vertical Std. Deviation (mm), Quality,
2006-07-15,0.00, 0.00, 0.00, 2.06, 1.62, 7.61, repro,
2006-07-16,0.46, -0.29, -8.20, 2.06, 1.63, 7.64, repro,
2006-07-17,1.96, -0.23, -8.49, 2.10, 1.69, 7.91, repro,
2006-07-18,-0.88, -0.21, 1.60, 2.02, 1.59, 7.38, repro,
2006-07-19,-1.49, -0.02, 1.65, 2.02, 1.58, 7.33, repro,
2006-07-20,-0.03, 1.05, -1.92, 2.00, 1.58, 7.29, repro,
2006-07-21,-0.40, 0.73, -6.33, 1.99, 1.60, 7.35, repro,
2006-07-22,0.01, 1.21, -7.04, 2.00, 1.60, 7.33, repro,
2006-07-23,-0.35, 0.14, -1.49, 2.01, 1.60, 7.37, repro,
2006-07-24,0.50, -0.61, 2.07, 2.00, 1.58, 7.28, repro,
2006-07-25,-0.15, 0.59, -5.53, 2.01, 1.58, 7.28, repro,
2006-07-26,-0.04, 0.11, -4.19, 2.00, 1.58, 7.26, repro,
2006-07-27,0.01, -0.02, -2.54, 1.99, 1.59, 7.27, repro,
2006-07-28,0.10, 0.42, -8.29, 2.01, 1.60, 7.34, repro,
2006-07-29,0.50, -1.42, -14.75, 2.02, 1.59, 7.34, repro,
2006-07-30,-0.36, 1.11, 0.66, 2.05, 1.64, 7.47, repro,
2006-07-31,-1.49, 1.02, 2.87, 2.00, 1.59, 7.31, repro,
2006-08-01,-1.28, 0.44, -1.24, 1.99, 1.58, 7.27, repro,
2006-08-02,0.62, -0.30, -7.03, 2.02, 1.64, 7.56, repro,
2006-08-03,0.07, 0.69, -9.56, 2.07, 1.70, 7.76, repro,
2006-08-04,-0.99, -0.31, -5.35, 2.11, 1.66, 7.76, repro,
2006-08-05,1.04, -0.27, -4.09, 2.08, 1.68, 7.74, repro,
2006-08-06,0.35, -0.25, -8.39, 2.06, 1.65, 7.69, repro,
2006-08-07,0.41, 0.87, -6.60, 2.03, 1.64, 7.60, repro,
2006-08-08,0.39, -0.24, -10.63, 2.05, 1.65, 7.49, repro,
2006-08-09,0.29, 0.19, -5.38, 2.02, 1.60, 7.39, repro,
2006-08-10,0.56, 0.99, -5.40, 2.01, 1.59, 7.33, repro,
2006-08-11,-0.26, 0.06, -6.93, 2.01, 1.59, 7.35, repro,
2006-08-12,-0.76, -0.16, -9.23, 2.01, 1.61, 7.37, repro,
2006-08-13,0.08, 0.54, -10.01, 2.04, 1.64, 7.46, repro,
2006-08-14,-2.03, -0.27, 0.13, 2.06, 1.66, 7.54, repro,
2006-08-15,-0.27, 0.27, -1.25, 2.07, 1.61, 7.45, repro,
2006-08-16,-0.23, 0.15, -4.28, 2.00, 1.59, 7.31, repro,
2006-08-17,-0.63, -0.14, -11.32, 2.05, 1.65, 7.51, repro,
2006-08-18,-0.33, 0.84, -3.54, 2.08, 1.69, 7.62, repro,
2006-08-19,-1.26, -0.23, -4.38, 1.99, 1.59, 7.28, repro,
2006-08-20,-0.14, 0.44, -1.87, 1.98, 1.59, 7.25, repro,
2006-08-21,0.33, 0.24, -6.87, 2.00, 1.62, 7.34, repro,
2006-08-22,-1.09, 0.16, -2.10, 2.00, 1.63, 7.39, repro,
2006-08-23,0.05, 0.98, 1.59, 2.01, 1.62, 7.41, repro,
2006-08-24,-0.68, 0.46, -0.76, 2.00, 1.62, 7.35, repro,
2006-08-25,-0.67, -0.20, 4.53, 2.03, 1.66, 7.62, repro,
2006-08-26,-0.01, 0.41, -3.94, 2.05, 1.68, 7.70, repro,
2006-08-27,-0.29, 0.06, -8.50, 2.08, 1.72, 7.92, repro,
2006-08-28,-1.70, -0.38, -6.86, 2.07, 1.71, 7.77, repro,
2006-08-29,-0.36, -0.24, -5.56, 2.08, 1.70, 7.76, repro,
2006-08-30,-0.35, 0.82, -0.56, 2.14, 1.74, 7.98, repro,
2006-08-31,-0.30, -0.16, -4.06, 2.07, 1.71, 7.79, repro,
2006-09-01,-0.31, 0.38, -10.49, 2.13, 1.74, 7.97, repro,
2006-09-02,-0.64, 0.87, -11.30, 2.08, 1.71, 7.84, repro,
2006-09-03,-2.35, -0.72, -4.34, 2.08, 1.71, 7.80, repro,
2006-09-04,-0.10, -0.18, -4.71, 2.14, 1.74, 7.97, repro,
2006-09-05,-0.31, 1.10, -9.79, 2.13, 1.75, 7.96, repro,
2006-09-06,0.67, 0.47, -3.33, 2.08, 1.71, 7.77, repro,
2006-09-07,-0.94, -0.02, -4.49, 2.12, 1.76, 8.08, repro,
2006-09-08,-1.21, -0.88, -5.05, 2.13, 1.75, 8.06, repro,
2006-09-09,-1.77, 0.11, -7.70, 2.05, 1.67, 7.59, repro,
2006-09-10,-0.62, -0.84, -7.27, 2.03, 1.67, 7.52, repro,
2006-09-11,0.03, -0.42, -8.33, 2.05, 1.67, 7.55, repro,
2006-09-12,0.81, 0.10, -8.74, 2.04, 1.66, 7.52, repro,
2006-09-13,-0.39, -0.17, 2.36, 2.06, 1.67, 7.60, repro,
2006-09-14,-0.19, -3.68, -3.15, 2.14, 1.72, 7.84, repro,
2006-09-15,-0.04, -0.99, -2.52, 2.09, 1.65, 7.57, repro,
2006-09-16,0.92, -1.25, -3.61, 2.01, 1.62, 7.37, repro,
2006-09-17,-0.24, 0.10, -3.91, 2.00, 1.62, 7.35, repro,
2006-09-18,-0.95, 0.01, 2.15, 2.00, 1.62, 7.36, repro,
2006-09-19,-1.27, 0.21, -2.87, 2.02, 1.64, 7.46, repro,
2006-09-20,-2.01, -1.19, -3.91, 2.02, 1.63, 7.40, repro,
2006-09-21,-0.22, -1.89, -2.06, 2.04, 1.68, 7.60, repro,
2006-09-22,2.39, -1.16, -1.98, 2.15, 1.71, 7.78, repro,
2006-09-23,-0.60, -0.36, -8.41, 2.11, 1.67, 7.58, repro,
2006-09-24,-0.08, 0.08, -2.47, 2.19, 1.72, 7.93, repro,
2006-09-25,-0.54, 0.38, -0.44, 2.14, 1.68, 7.74, repro,
2006-09-26,0.34, 0.07, -5.63, 2.07, 1.65, 7.47, repro,
2006-09-27,0.20, -1.34, -7.70, 2.09, 1.65, 7.51, repro,
2006-09-28,-0.64, -0.29, -9.34, 2.10, 1.69, 7.60, repro,
2006-09-29,-1.26, -0.91, 2.62, 2.08, 1.66, 7.53, repro,
2006-09-30,-0.82, 0.32, 5.15, 2.07, 1.67, 7.66, repro,
2006-10-01,-0.79, -0.77, -0.80, 2.04, 1.64, 7.51, repro,
2006-10-02,0.43, -1.04, -6.87, 2.10, 1.73, 7.72, repro,
2006-10-03,-1.18, -1.43, -6.57, 2.12, 1.74, 7.77, repro,
2006-10-04,0.07, 0.03, -1.52, 2.08, 1.65, 7.49, repro,
2006-10-05,-0.45, -1.14, 2.76, 2.09, 1.67, 7.75, repro,
2006-10-06,0.34, -0.67, -3.41, 2.10, 1.68, 7.77, repro,
2006-10-07,0.07, -0.03, -10.64, 2.12, 1.72, 7.91, repro,
2006-10-08,-0.42, -0.89, -9.51, 2.05, 1.67, 7.55, repro,
2006-10-09,-0.98, -1.20, -7.44, 2.06, 1.67, 7.56, repro,
2006-10-10,-1.00, -0.34, -9.12, 2.03, 1.64, 7.45, repro,
2006-10-11,-1.86, -0.76, 0.03, 2.07, 1.68, 7.67, repro,
2006-10-12,-1.81, 0.18, 2.79, 2.09, 1.66, 7.55, repro,
2006-10-13,-1.02, -0.71, 0.61, 2.03, 1.63, 7.44, repro,
2006-10-14,0.30, -0.52, -2.83, 2.00, 1.64, 7.44, repro,
2006-10-15,-0.07, -1.50, 4.01, 2.01, 1.65, 7.48, repro,
2006-10-16,-0.38, -1.00, 10.09, 2.01, 1.63, 7.44, repro,
2006-10-17,-0.59, -0.98, 4.55, 2.09, 1.71, 7.90, repro,
2006-10-18,-0.27, -0.07, -0.77, 2.09, 1.71, 7.91, repro,
2006-10-19,0.10, -0.20, -1.95, 2.19, 1.73, 8.13, repro,
2006-10-20,0.14, -0.33, -1.46, 2.22, 1.79, 8.63, repro,
2006-10-21,0.10, -0.34, -3.48, 2.23, 1.81, 8.46, repro,
2006-10-22,-1.42, -0.30, -4.87, 2.05, 1.71, 7.75, repro,
2006-10-23,-0.49, -0.26, -8.34, 2.12, 1.75, 8.06, repro,
2006-10-24,-1.14, -0.18, 0.28, 2.24, 1.78, 8.32, repro,
2006-10-25,-0.51, 0.03, 3.39, 2.19, 1.74, 8.14, repro,
2006-10-26,0.19, -0.78, -2.53, 2.05, 1.72, 7.77, repro,
2006-10-27,0.26, -0.45, -6.26, 2.02, 1.68, 7.63, repro,
2006-10-28,-0.68, -0.02, -7.54, 2.11, 1.70, 7.93, repro,
2006-10-29,-0.40, 0.17, 0.34, 2.02, 1.66, 7.59, repro,
2006-10-30,-0.37, -0.39, 0.03, 1.97, 1.62, 7.34, repro,
2006-10-31,-0.88, -1.25, -0.14, 2.00, 1.65, 7.49, repro,
2006-11-01,-0.54, 0.51, -4.37, 2.02, 1.66, 7.58, repro,
2006-11-02,-0.88, -0.04, -5.01, 2.04, 1.69, 7.70, repro,
2006-11-03,-0.48, -0.23, -6.22, 2.02, 1.68, 7.63, repro,
2006-11-04,-0.63, 0.15, -3.08, 2.09, 1.70, 7.74, repro,
2006-11-05,0.75, -0.28, -2.81, 2.07, 1.69, 7.64, repro,
2006-11-06,1.27, -0.66, -6.85, 1.99, 1.64, 7.48, repro,
2006-11-07,2.29, -0.90, -2.97, 2.15, 1.78, 8.10, repro,
2006-11-08,0.32, 0.09, 8.26, 2.10, 1.72, 7.89, repro,
2006-11-09,0.81, -0.16, 0.01, 2.19, 1.84, 8.31, repro,
2006-11-10,0.30, -0.54, -4.06, 2.04, 1.65, 7.55, repro,
2006-11-11,1.09, -0.33, -4.50, 2.11, 1.72, 7.92, repro,
2006-11-12,0.50, -0.58, -4.07, 2.14, 1.76, 7.92, repro,
2006-11-13,2.01, 2.25, -2.55, 2.10, 1.72, 7.78, repro,
2006-11-14,1.87, 0.64, 0.26, 1.99, 1.63, 7.38, repro,
2006-11-15,1.03, -0.14, -2.30, 1.97, 1.62, 7.30, repro,
2006-11-16,-0.18, -0.58, -6.52, 1.98, 1.62, 7.33, repro,
2006-11-17,0.76, -0.50, -0.53, 1.99, 1.62, 7.38, repro,
2006-11-18,1.61, 0.01, -10.65, 1.98, 1.62, 7.31, repro,
2006-11-19,1.31, -0.68, -12.77, 1.98, 1.62, 7.32, repro,
2006-11-20,1.24, 0.69, -3.17, 1.97, 1.62, 7.27, repro,
2006-11-21,1.12, -0.47, -0.77, 1.97, 1.62, 7.27, repro,
2006-11-22,0.97, -0.20, -3.12, 1.97, 1.62, 7.30, repro,
2006-11-23,1.44, 0.09, -7.66, 2.01, 1.67, 7.58, repro,
2006-11-24,1.49, -0.96, -7.12, 2.07, 1.70, 7.70, repro,
2006-11-25,1.06, -0.44, -3.08, 2.01, 1.64, 7.39, repro,
2006-11-26,0.07, -0.92, -1.62, 2.00, 1.64, 7.34, repro,
2006-11-27,0.09, -1.06, -3.66, 2.00, 1.63, 7.38, repro,
2006-11-28,1.48, -0.45, -2.86, 1.97, 1.63, 7.32, repro,
2006-11-29,0.66, 0.15, -2.04, 1.98, 1.63, 7.34, repro,
2006-11-30,2.00, 1.09, -8.45, 1.97, 1.63, 7.37, repro,
2006-12-01,0.95, 1.06, -12.31, 1.96, 1.62, 7.32, repro,
2006-12-02,0.54, -0.65, -10.60, 1.96, 1.61, 7.28, repro,
2006-12-03,0.55, -0.02, -6.86, 1.96, 1.61, 7.28, repro,
2006-12-04,2.12, 0.28, -12.62, 2.01, 1.64, 7.46, repro,
2006-12-05,1.43, -0.22, -8.56, 2.00, 1.69, 7.51, repro,
2006-12-06,1.23, -0.00, -7.19, 2.05, 1.77, 7.70, repro,
2006-12-07,0.80, 0.37, -7.74, 1.98, 1.68, 7.45, repro,
2006-12-08,1.82, -0.50, -9.30, 1.99, 1.69, 7.54, repro,
2006-12-09,1.72, -1.07, -7.94, 2.03, 1.71, 7.62, repro,
2006-12-10,0.43, -1.78, -2.60, 2.04, 1.72, 7.63, repro,
2006-12-11,0.16, -0.59, -4.25, 1.98, 1.66, 7.47, repro,
2006-12-12,1.66, -0.51, -9.35, 2.03, 1.71, 7.57, repro,
2006-12-13,1.62, -0.94, -10.72, 1.96, 1.65, 7.41, repro,
2006-12-14,2.31, -1.06, -6.33, 1.94, 1.64, 7.34, repro,
2006-12-15,2.66, -1.38, -4.43, 2.02, 1.75, 7.68, repro,
2006-12-16,1.69, -0.86, -3.46, 2.08, 1.78, 7.70, repro,
2006-12-17,1.29, -0.76, -4.52, 2.06, 1.81, 7.99, repro,
2006-12-18,1.49, 0.19, -5.67, 2.17, 1.89, 8.38, repro,
2006-12-19,1.10, 0.00, -3.88, 2.05, 1.81, 7.94, repro,
2006-12-20,1.07, -0.06, -10.20, 2.09, 1.83, 7.80, repro,
2006-12-21,0.40, -0.09, -12.60, 1.99, 1.78, 7.59, repro,
2006-12-22,2.64, -0.22, -6.40, 2.11, 1.89, 8.13, repro,
2006-12-23,0.71, -0.44, -11.95, 2.05, 1.77, 7.88, repro,
2006-12-24,1.58, 0.33, -9.36, 1.97, 1.65, 7.38, repro,
2006-12-25,1.40, -0.70, -11.00, 1.99, 1.72, 7.57, repro,
2006-12-26,3.94, -0.91, -11.02, 2.03, 1.73, 7.66, repro,
2006-12-27,2.32, -0.11, -9.98, 2.06, 1.78, 7.79, repro,
2006-12-28,2.19, -0.44, -9.03, 2.29, 2.08, 8.93, repro,
2006-12-29,1.71, -0.07, -15.81, 2.06, 1.76, 7.79, repro,
2006-12-30,2.19, -1.42, -8.20, 2.04, 1.75, 7.75, repro,
2006-12-31,1.74, -1.20, -11.31, 2.21, 1.91, 8.48, repro,
2007-01-01,1.24, -0.12, -10.99, 2.20, 1.91, 8.27, repro,
2007-01-02,0.91, -0.10, -10.09, 2.17, 1.94, 8.36, repro,
2007-01-03,2.58, 0.13, -6.31, 2.03, 1.80, 7.76, repro,
2007-01-04,1.36, -0.40, 0.40, 1.96, 1.68, 7.51, repro,
2007-01-05,2.71, -1.67, -11.31, 2.00, 1.74, 7.62, repro,
2007-01-06,1.40, -0.79, -11.85, 1.98, 1.73, 7.51, repro,
2007-01-07,1.89, -0.36, -14.99, 2.01, 1.67, 7.44, repro,
2007-01-08,1.66, -0.36, -15.64, 2.04, 1.72, 7.60, repro,
2007-01-09,0.89, 0.51, -14.35, 2.01, 1.67, 7.38, repro,
2007-01-10,2.15, 0.38, -9.69, 2.01, 1.66, 7.39, repro,
2007-01-11,-0.02, -0.41, -6.15, 2.06, 1.66, 7.50, repro,
2007-01-12,1.63, -0.80, -9.99, 1.97, 1.62, 7.28, repro,
2007-01-13,1.43, 0.70, -15.10, 1.94, 1.61, 7.12, repro,
2007-01-14,0.95, 0.18, -16.91, 1.94, 1.60, 7.09, repro,
2007-01-15,1.25, -0.38, -15.89, 1.94, 1.61, 7.18, repro,
2007-01-16,0.90, -0.66, -16.83, 1.97, 1.61, 7.18, repro,
2007-01-17,1.00, -1.57, -13.12, 1.96, 1.64, 7.28, repro,
2007-01-18,0.78, -0.03, -18.43, 2.01, 1.69, 7.47, repro,
2007-01-19,0.95, 0.68, -11.02, 2.01, 1.62, 7.44, repro,
2007-01-20,1.03, 0.15, -9.98, 1.99, 1.62, 7.42, repro,
2007-01-21,1.62, -0.41, -10.96, 1.94, 1.60, 7.11, repro,
2007-01-22,1.26, -0.07, -10.83, 1.94, 1.60, 7.11, repro,
2007-01-23,0.47, -0.24, -16.44, 1.94, 1.60, 7.09, repro,
2007-01-24,0.76, 0.96, -17.08, 1.94, 1.61, 7.13, repro,
2007-01-25,0.19, 0.59, -16.64, 1.98, 1.63, 7.16, repro,
2007-01-26,0.68, -0.84, -11.69, 1.93, 1.60, 7.11, repro,
2007-01-27,-0.06, -1.16, -11.19, 1.93, 1.60, 7.06, repro,
2007-01-28,0.13, 0.65, -10.45, 1.94, 1.59, 7.03, repro,
2007-01-29,-0.59, 0.67, -11.79, 1.94, 1.59, 7.02, repro,
2007-01-30,0.01, -0.06, -7.67, 1.94, 1.59, 7.04, repro,
2007-01-31,-0.26, -0.36, -7.86, 1.93, 1.60, 7.07, repro,
2007-02-01,-0.51, -0.04, -7.16, 1.97, 1.63, 7.24, repro,
2007-02-02,-0.36, 0.32, -11.44, 1.96, 1.60, 7.17, repro,
2007-02-03,0.72, 0.61, -11.79, 1.98, 1.61, 7.22, repro,
2007-02-04,-0.00, 0.28, -11.87, 1.92, 1.59, 7.03, repro,
2007-02-05,0.41, 0.63, -15.03, 1.93, 1.60, 7.07, repro,
2007-02-06,0.30, 0.26, -19.92, 1.98, 1.60, 7.15, repro,
2007-02-07,0.42, 0.11, -5.24, 1.93, 1.60, 7.08, repro,
2007-02-08,0.22, -0.43, -12.39, 1.96, 1.65, 7.28, repro,
2007-02-09,0.83, 1.02, -10.35, 1.96, 1.65, 7.24, repro,
2007-02-10,0.97, -0.18, -9.90, 1.95, 1.61, 7.12, repro,
2007-02-11,2.63, 0.69, -10.65, 2.02, 1.72, 7.53, repro,
2007-02-12,0.94, 0.65, -16.34, 1.93, 1.59, 7.03, repro,
2007-02-13,0.59, 0.61, -14.53, 1.93, 1.59, 7.05, repro,
2007-02-14,1.25, 0.72, -15.23, 1.92, 1.60, 7.06, repro,
2007-02-15,1.57, 1.27, -16.37, 1.94, 1.60, 7.07, repro,
2007-02-16,0.55, 1.65, -11.53, 1.93, 1.59, 7.04, repro,
2007-02-17,0.45, 1.21, -8.39, 1.97, 1.64, 7.20, repro,
2007-02-18,0.40, 0.84, -7.32, 1.93, 1.60, 7.09, repro,
2007-02-19,-0.05, 0.38, -3.04, 1.94, 1.60, 7.15, repro,
2007-02-20,0.46, 0.57, -6.05, 1.95, 1.61, 7.17, repro,
2007-02-21,0.05, 1.48, -3.37, 1.93, 1.59, 7.06, repro,
2007-02-22,-1.33, 2.08, -3.97, 1.97, 1.65, 7.24, repro,
2007-02-23,0.47, 1.21, -0.70, 2.02, 1.67, 7.38, repro,
2007-02-24,0.78, 0.19, -8.70, 1.93, 1.59, 7.05, repro,
2007-02-25,0.86, 0.51, -11.42, 1.95, 1.60, 7.20, repro,
2007-02-26,0.27, 1.40, -5.51, 1.94, 1.59, 7.06, repro,
2007-02-27,-0.50, 2.00, -0.18, 1.95, 1.60, 7.14, repro,
2007-02-28,-0.28, 0.61, -4.16, 1.93, 1.59, 7.03, repro,
2007-03-01,0.03, 1.29, -8.61, 1.99, 1.66, 7.35, repro,
2007-03-02,0.86, 0.79, -9.62, 1.99, 1.66, 7.35, repro,
2007-03-03,0.33, 0.78, -15.13, 1.96, 1.63, 7.25, repro,
2007-03-04,-0.04, 2.26, -14.66, 1.95, 1.63, 7.19, repro,
2007-03-05,0.15, 2.02, -7.97, 1.98, 1.64, 7.28, repro,
2007-03-06,0.39, 1.35, -9.65, 1.96, 1.64, 7.25, repro,
2007-03-07,0.01, -0.30, -4.15, 1.96, 1.64, 7.25, repro,
2007-03-08,-0.21, 0.93, -6.56, 1.96, 1.64, 7.26, repro,
2007-03-09,-0.11, 0.62, -9.14, 1.98, 1.63, 7.28, repro,
2007-03-10,0.06, 1.27, -12.77, 2.03, 1.67, 7.49, repro,
2007-03-11,0.26, 0.90, -9.57, 1.98, 1.64, 7.31, repro,
2007-03-12,0.91, 0.91, -4.49, 1.97, 1.64, 7.30, repro,
2007-03-13,-0.28, 1.29, -9.08, 1.93, 1.59, 7.06, repro,
2007-03-14,-0.20, 2.13, -8.15, 1.93, 1.59, 7.07, repro,
2007-03-15,-0.41, 1.60, -10.74, 1.98, 1.61, 7.17, repro,
2007-03-16,0.34, 1.51, -9.72, 1.97, 1.61, 7.19, repro,
2007-03-17,0.83, 0.66, -1.77, 1.95, 1.58, 7.09, repro,
2007-03-18,-0.68, 1.76, 0.93, 1.96, 1.62, 7.20, repro,
2007-03-19,0.15, 0.66, -4.00, 2.00, 1.66, 7.32, repro,
2007-03-20,-0.73, 0.72, 7.19, 2.01, 1.61, 7.22, repro,
2007-03-21,0.32, 0.86, 4.01, 2.06, 1.66, 7.48, repro,
2007-03-22,0.04, 0.14, -3.15, 1.96, 1.59, 7.18, repro,
2007-03-23,-0.54, -0.31, 0.53, 1.94, 1.57, 7.02, repro,
2007-03-24,-0.41, 0.16, 0.90, 1.97, 1.62, 7.25, repro,
2007-03-25,-0.88, 0.34, 3.94, 1.95, 1.59, 7.10, repro,
2007-03-26,-1.36, 0.19, -3.85, 1.96, 1.60, 7.17, repro,
2007-03-27,0.23, 1.98, -10.56, 2.03, 1.65, 7.40, repro,
2007-03-28,-0.64, 1.23, -6.66, 2.00, 1.60, 7.20, repro,
2007-03-29,-1.06, 0.73, -6.48, 1.95, 1.58, 7.08, repro,
2007-03-30,-0.34, 0.77, -8.13, 1.95, 1.58, 7.06, repro,
2007-03-31,-0.55, 2.27, -5.35, 1.94, 1.58, 7.03, repro,
2007-04-01,-0.30, 1.24, -3.53, 1.94, 1.59, 7.08, repro,
2007-04-02,-0.73, 1.36, -4.57, 1.96, 1.58, 7.08, repro,
2007-04-03,-0.34, 1.61, -8.72, 1.97, 1.62, 7.23, repro,
2007-04-04,-0.12, 0.84, -5.53, 2.03, 1.69, 7.46, repro,
2007-04-05,-1.54, 0.71, -4.67, 2.05, 1.74, 7.55, repro,
2007-04-06,-1.54, 1.45, -10.10, 2.00, 1.67, 7.38, repro,
2007-04-07,-0.83, 0.63, -3.88, 1.99, 1.61, 7.18, repro,
2007-04-08,-1.56, -0.57, -4.73, 1.96, 1.57, 7.06, repro,
2007-04-09,-0.10, 0.78, -6.08, 1.96, 1.57, 7.07, repro,
2007-04-10,0.64, 0.68, -3.56, 2.00, 1.62, 7.24, repro,
2007-04-11,-1.08, -0.92, 2.87, 1.95, 1.59, 7.08, repro,
2007-04-12,-0.80, -0.23, -5.09, 1.95, 1.59, 7.11, repro,
2007-04-13,-0.39, 0.86, -4.29, 1.96, 1.58, 7.08, repro,
2007-04-14,0.53, 0.53, -7.95, 1.97, 1.58, 7.12, repro,
2007-04-15,-0.21, 0.72, -3.38, 1.96, 1.58, 7.09, repro,
2007-04-16,-0.23, 0.63, -4.14, 1.95, 1.58, 7.05, repro,
2007-04-17,-2.31, -0.19, -5.14, 1.96, 1.59, 7.14, repro,
2007-04-18,-0.68, 0.05, -6.85, 1.96, 1.59, 7.12, repro,
2007-04-19,0.24, -0.15, -7.38, 1.97, 1.57, 7.08, repro,
2007-04-20,-0.39, 0.01, -2.77, 1.95, 1.57, 7.06, repro,
2007-04-21,-0.72, 1.43, -4.84, 1.96, 1.58, 7.10, repro,
2007-04-22,-0.35, 1.39, -3.88, 1.96, 1.58, 7.11, repro,
2007-04-23,-0.24, 0.11, -6.80, 1.99, 1.61, 7.25, repro,
2007-04-24,0.44, 1.41, -11.35, 2.00, 1.60, 7.21, repro,
2007-04-25,0.14, -0.07, -4.54, 1.99, 1.60, 7.15, repro,
2007-04-26,-0.10, 0.48, -8.15, 1.96, 1.58, 7.10, repro,
2007-04-27,-0.26, 1.05, -7.60, 1.95, 1.58, 7.11, repro,
2007-04-28,-0.41, 1.13, -10.76, 1.97, 1.58, 7.14, repro,
2007-04-29,0.13, 1.28, -7.72, 1.97, 1.58, 7.11, repro,
2007-04-30,0.13, -0.43, -6.48, 1.97, 1.57, 7.09, repro,
2007-05-01,-0.93, 0.74, -1.87, 1.96, 1.56, 7.05, repro,
2007-05-02,-1.47, 1.56, -9.09, 2.03, 1.59, 7.38, repro,
2007-05-03,0.46, 0.42, -6.70, 2.09, 1.63, 7.52, repro,
2007-05-04,-0.29, 0.50, -0.23, 1.96, 1.56, 7.05, repro,
2007-05-05,-0.54, -0.38, -4.99, 2.01, 1.62, 7.22, repro,
2007-05-06,0.35, -0.43, -7.69, 1.98, 1.56, 7.11, repro,
2007-05-07,0.73, 1.36, -11.80, 1.98, 1.57, 7.14, repro,
2007-05-08,-0.40, 0.28, -8.39, 1.98, 1.58, 7.21, repro,
2007-05-09,0.77, 0.23, -11.83, 1.97, 1.56, 7.13, repro,
2007-05-10,-0.00, -0.62, -8.22, 2.13, 1.68, 7.67, repro,
2007-05-11,-0.11, 0.27, -7.58, 2.08, 1.64, 7.54, repro,
2007-05-12,-0.54, -0.27, -6.50, 1.98, 1.56, 7.10, repro,
2007-05-13,0.79, 0.52, -8.91, 2.01, 1.60, 7.24, repro,
2007-05-14,-0.59, 0.93, -9.73, 2.00, 1.59, 7.19, repro,
2007-05-15,0.42, 0.66, -10.27, 1.99, 1.57, 7.12, repro,
2007-05-16,0.57, 1.04, -8.68, 1.99, 1.57, 7.10, repro,
2007-05-17,-0.04, -0.46, -2.88, 2.02, 1.61, 7.28, repro,
2007-05-18,-0.46, 0.54, -7.76, 2.04, 1.64, 7.35, repro,
2007-05-19,-2.11, 0.74, -8.49, 2.01, 1.61, 7.22, repro,
2007-05-20,0.58, 0.65, -5.83, 2.05, 1.65, 7.37, repro,
2007-05-21,-0.08, -0.13, -0.80, 2.02, 1.61, 7.25, repro,
2007-05-22,0.06, 1.08, -4.72, 2.03, 1.61, 7.26, repro,
2007-05-23,-0.04, 0.29, -4.51, 2.00, 1.60, 7.17, repro,
2007-05-24,-0.57, -0.01, -5.73, 2.09, 1.69, 7.52, repro,
2007-05-25,-0.84, 0.25, -4.38, 1.98, 1.58, 7.10, repro,
2007-05-26,0.18, 0.86, -4.31, 2.03, 1.62, 7.27, repro,
2007-05-27,0.06, 0.17, -7.01, 2.04, 1.63, 7.28, repro,
2007-05-28,-2.36, 1.86, -3.67, 2.00, 1.58, 7.11, repro,
2007-05-29,-0.25, 0.07, -3.78, 1.99, 1.56, 7.02, repro,
2007-05-30,-1.90, -0.36, -5.38, 2.03, 1.57, 7.13, repro,
2007-05-31,-0.39, 0.23, -7.52, 2.03, 1.61, 7.24, repro,
2007-06-01,0.46, 0.21, -8.14, 2.00, 1.59, 7.17, repro,
2007-06-02,-0.22, -0.08, -7.62, 1.99, 1.58, 7.14, repro,
2007-06-03,-0.90, 0.47, -7.95, 1.99, 1.57, 7.10, repro,
2007-06-04,-1.44, 0.32, -5.02, 1.96, 1.55, 7.00, repro,
2007-06-05,-0.65, 0.22, 2.55, 2.03, 1.59, 7.24, repro,
2007-06-06,0.21, -0.68, 4.78, 1.99, 1.59, 7.16, repro,
2007-06-07,1.19, -0.09, -1.52, 2.00, 1.60, 7.21, repro,
2007-06-08,-0.15, -0.01, -4.94, 1.99, 1.57, 7.12, repro,
2007-06-09,-0.87, 0.89, -7.76, 1.98, 1.60, 7.12, repro,
2007-06-10,-2.29, -0.25, -1.23, 2.00, 1.59, 7.20, repro,
2007-06-11,0.36, -0.04, -5.97, 2.02, 1.68, 7.33, repro,
2007-06-12,1.03, 1.22, -6.31, 2.04, 1.69, 7.41, repro,
2007-06-13,-0.57, 0.94, -5.63, 2.04, 1.63, 7.30, repro,
2007-06-14,-0.13, 1.40, -10.40, 2.02, 1.61, 7.18, repro,
2007-06-15,-1.21, 0.42, -2.35, 1.97, 1.57, 7.06, repro,
2007-06-16,-0.77, -0.71, -3.43, 1.96, 1.58, 7.05, repro,
2007-06-17,-0.51, 0.01, -5.32, 1.97, 1.58, 7.10, repro,
2007-06-18,0.33, 1.64, -0.95, 1.98, 1.58, 7.12, repro,
2007-06-19,-0.44, -0.39, -9.16, 1.98, 1.58, 7.12, repro,
2007-06-20,-0.21, 0.63, -11.94, 1.97, 1.57, 7.11, repro,
2007-06-21,0.53, 0.30, -7.63, 1.96, 1.57, 7.06, repro,
2007-06-22,-0.01, -0.13, -9.46, 1.97, 1.59, 7.16, repro,
2007-06-23,0.59, 0.79, -9.60, 1.99, 1.58, 7.14, repro,
2007-06-24,-0.18, -0.96, -10.91, 2.02, 1.61, 7.34, repro,
2007-06-25,0.04, 0.11, -6.99, 1.97, 1.57, 7.09, repro,
2007-06-26,1.16, 0.36, -8.12, 1.98, 1.57, 7.13, repro,
2007-06-27,0.36, 0.76, -14.98, 1.96, 1.57, 7.09, repro,
2007-06-28,-1.16, 1.53, -11.90, 1.98, 1.59, 7.21, repro,
2007-06-29,-1.06, 1.35, -7.05, 2.00, 1.58, 7.20, repro,
2007-06-30,-0.71, 0.38, -9.52, 2.00, 1.57, 7.19, repro,
2007-07-01,0.22, -0.07, -7.42, 1.97, 1.57, 7.10, repro,
2007-07-02,-0.04, 0.17, -2.60, 1.96, 1.57, 7.06, repro,
2007-07-03,-0.41, 0.86, -11.45, 1.97, 1.59, 7.21, repro,
2007-07-04,-0.83, 1.28, -13.21, 1.99, 1.59, 7.22, repro,
2007-07-05,0.02, -0.10, -12.81, 2.00, 1.58, 7.23, repro,
2007-07-06,0.58, 0.31, -14.55, 1.98, 1.57, 7.14, repro,
2007-07-07,-1.37, 0.14, -11.25, 1.96, 1.57, 7.06, repro,
2007-07-08,-2.06, -0.54, -4.34, 1.95, 1.57, 7.03, repro,
2007-07-09,-1.02, 0.54, -6.63, 1.99, 1.60, 7.22, repro,
2007-07-10,0.04, 0.05, -15.14, 1.99, 1.58, 7.19, repro,
2007-07-11,0.11, 0.60, -11.57, 2.01, 1.59, 7.23, repro,
2007-07-12,-0.31, 0.98, -12.17, 2.00, 1.63, 7.24, repro,
2007-07-13,-0.78, 0.16, -10.10, 1.99, 1.63, 7.20, repro,
2007-07-14,-0.79, 2.12, -11.93, 1.99, 1.63, 7.22, repro,
2007-07-15,1.34, 1.32, -13.55, 2.03, 1.65, 7.40, repro,
2007-07-16,0.17, 1.04, -11.48, 2.00, 1.59, 7.19, repro,
2007-07-17,0.18, 0.76, 0.13, 1.99, 1.58, 7.18, repro,
2007-07-18,-0.83, -1.23, -3.38, 1.97, 1.57, 7.10, repro,
2007-07-19,-0.18, 0.50, -9.48, 1.96, 1.57, 7.04, repro,
2007-07-20,0.65, 0.23, -7.09, 2.02, 1.64, 7.35, repro,
2007-07-21,0.47, 0.36, -7.95, 2.04, 1.66, 7.46, repro,
2007-07-22,-0.10, 0.24, -14.64, 2.04, 1.65, 7.41, repro,
2007-07-23,-0.20, 0.28, -5.48, 2.03, 1.64, 7.39, repro,
2007-07-24,2.41, 1.49, -0.68, 2.00, 1.60, 7.24, repro,
2007-07-25,-0.86, 0.13, -4.27, 1.99, 1.58, 7.12, repro,
2007-07-26,0.78, 0.22, -7.53, 2.00, 1.58, 7.18, repro,
2007-07-27,0.76, -0.60, -7.95, 2.05, 1.67, 7.53, repro,
2007-07-28,-0.54, -0.31, -8.65, 2.02, 1.65, 7.38, repro,
2007-07-29,-0.00, 0.23, -2.91, 2.03, 1.65, 7.40, repro,
2007-07-30,-0.98, 0.45, -4.02, 1.98, 1.58, 7.13, repro,
2007-07-31,0.06, -0.28, -11.03, 1.97, 1.58, 7.08, repro,
2007-08-01,-0.38, 1.17, 5.50, 1.99, 1.58, 7.16, repro,
2007-08-02,-0.54, -0.10, -2.23, 1.99, 1.60, 7.22, repro,
2007-08-03,-0.35, 0.48, 3.74, 1.97, 1.57, 7.10, repro,
2007-08-04,-1.05, 0.37, -0.16, 1.97, 1.58, 7.11, repro,
2007-08-05,0.05, 0.86, -1.18, 2.02, 1.59, 7.24, repro,
2007-08-06,-0.10, 1.03, -3.10, 2.01, 1.63, 7.33, repro,
2007-08-07,-0.11, 0.88, 0.57, 2.01, 1.62, 7.29, repro,
2007-08-08,-0.29, 0.09, -4.11, 1.98, 1.59, 7.18, repro,
2007-08-09,-0.43, -0.77, 0.86, 1.97, 1.57, 7.07, repro,
2007-08-10,-0.62, 0.69, 0.91, 1.97, 1.58, 7.09, repro,
2007-08-11,-0.65, 2.20, -2.92, 1.97, 1.57, 7.07, repro,
2007-08-12,-0.12, 0.87, -3.69, 1.98, 1.57, 7.11, repro,
2007-08-13,-0.37, -0.16, -2.27, 1.98, 1.57, 7.09, repro,
2007-08-14,0.92, -0.98, -4.57, 2.09, 1.69, 7.47, repro,
2007-08-15,0.31, 0.10, -3.60, 2.10, 1.70, 7.50, repro,
2007-08-16,-0.84, -2.09, -1.19, 2.06, 1.65, 7.46, repro,
2007-08-17,-0.82, -0.01, -4.68, 2.06, 1.64, 7.42, repro,
2007-08-18,-0.52, 0.58, -4.91, 2.08, 1.67, 7.65, repro,
2007-08-19,1.81, -0.57, -3.41, 2.09, 1.68, 7.66, repro,
2007-08-20,0.05, -0.98, 2.45, 2.05, 1.63, 7.40, repro,
2007-08-21,-0.61, -0.03, -3.92, 2.09, 1.64, 7.46, repro,
2007-08-22,0.03, -0.43, -5.98, 2.07, 1.63, 7.38, repro,
2007-08-23,-0.63, -0.16, 1.33, 2.04, 1.59, 7.28, repro,
2007-08-24,0.21, -0.18, -0.51, 2.14, 1.67, 7.63, repro,
2007-08-25,-0.29, -0.65, -2.27, 2.06, 1.65, 7.43, repro,
2007-08-26,-0.16, -1.00, 4.93, 2.09, 1.69, 7.60, repro,
2007-08-27,-1.26, -1.25, -0.80, 2.11, 1.71, 7.65, repro,
2007-08-28,-0.23, 0.34, 2.93, 2.09, 1.67, 7.58, repro,
2007-08-29,-0.32, -0.07, -1.85, 2.09, 1.66, 7.53, repro,
2007-08-30,-0.40, -0.26, -1.07, 2.07, 1.66, 7.49, repro,
2007-08-31,-0.96, -0.10, -3.18, 2.07, 1.66, 7.44, repro,
2007-09-01,-0.10, -2.06, -1.47, 2.07, 1.66, 7.43, repro,
2007-09-02,-2.09, -0.61, -4.71, 2.06, 1.65, 7.40, repro,
2007-09-03,0.31, -1.28, -2.99, 2.09, 1.67, 7.56, repro,
2007-09-04,0.66, -3.23, 0.59, 2.09, 1.67, 7.57, repro,
2007-09-05,0.33, -1.33, 2.45, 2.10, 1.71, 7.65, repro,
2007-09-06,0.20, -1.36, 4.07, 2.06, 1.65, 7.43, repro,
2007-09-07,-0.58, -1.05, 1.25, 2.07, 1.65, 7.44, repro,